| time (UTC) | temp C | wind direction | speed KPH | gust KPH | rain 1hr cm | rain 24hr cm | rain mn cm | humidity % | barometer mb |
| 20260506092525 | 17 | 0.0 | 0.0 | 0.00 | 0.00 | 0.00 | 55 | 1008.0 | |
| 20260506091542 | 16 | 0.0 | 0.0 | 0.00 | 0.00 | 0.00 | 56 | 1008.0 | |
| 20260506090525 | 16 | 0.0 | 0.0 | 0.00 | 0.00 | 0.00 | 56 | 1008.0 | |
| 20260506085528 | 16 | 0.0 | 0.0 | 0.00 | 0.00 | 0.00 | 58 | 1008.0 | |
| 20260506084553 | 16 | 0.0 | 0.0 | 0.00 | 0.00 | 0.00 | 59 | 1008.0 | |
| 20260506083531 | 16 | 0.0 | 0.0 | 0.00 | 0.00 | 0.00 | 60 | 1008.0 | |
| 20260506082606 | 16 | 0.0 | 0.0 | 0.00 | 0.00 | 0.00 | 61 | 1008.0 | |
| 20260506081535 | 15 | 0.0 | 0.0 | 0.00 | 0.00 | 0.00 | 63 | 1008.0 | |
| 20260506080527 | 15 | 0.0 | 0.0 | 0.00 | 0.00 | 0.00 | 63 | 1008.0 | |
| 20260506072535 | 13 | 0.0 | 0.0 | 0.00 | 0.00 | 0.00 | 71 | 1006.9 | |
| 20260506071535 | 13 | 0.0 | 0.0 | 0.00 | 0.00 | 0.00 | 72 | 1007.1 | |
| 20260506070529 | 12 | 0.0 | 0.0 | 0.00 | 0.00 | 0.00 | 72 | 1008.0 | |
| 20260506061528 | 11 | 0.0 | 0.0 | 0.00 | 0.00 | 0.00 | 79 | 1008.0 | |
| 20260506060530 | 11 | 0.0 | 0.0 | 0.00 | 0.00 | 0.00 | 80 | 1008.0 | |
| 20260506050535 | 10 | 0.0 | 0.0 | 0.00 | 0.00 | 0.00 | 82 | 1008.0 | |
| 20260506044611 | 9 | 0.0 | 0.0 | 0.00 | 0.00 | 0.00 | 82 | 1008.0 | |
| 20260506043548 | 9 | 0.0 | 0.0 | 0.00 | 0.00 | 0.00 | 82 | 1008.0 | |
| 20260506042540 | 9 | 0.0 | 0.0 | 0.00 | 0.00 | 0.00 | 83 | 1008.0 | |
| 20260506041532 | 9 | 0.0 | 0.0 | 0.00 | 0.00 | 0.00 | 83 | 1008.0 | |
| 20260506040539 | 8 | 0.0 | 0.0 | 0.00 | 0.00 | 0.00 | 82 | 1008.0 | |
| 20260506035531 | 8 | 0.0 | 0.0 | 0.00 | 0.00 | 0.00 | 82 | 1008.0 | |
| 20260506034534 | 8 | 0.0 | 0.0 | 0.00 | 0.00 | 0.00 | 82 | 1008.0 | |
| 20260506033549 | 8 | 0.0 | 0.0 | 0.00 | 0.00 | 0.00 | 82 | 1008.0 | |
| 20260506032535 | 8 | 0.0 | 0.0 | 0.00 | 0.00 | 0.00 | 79 | 1008.0 | |
| 20260506031551 | 8 | 0.0 | 0.0 | 0.00 | 0.00 | 0.00 | 79 | 1008.0 | |
| 20260506030632 | 8 | 0.0 | 0.0 | 0.00 | 0.00 | 0.00 | 78 | 1008.0 | |
| 20260506025534 | 8 | 0.0 | 0.0 | 0.00 | 0.00 | 0.00 | 76 | 1006.9 | |
| 20260506024535 | 8 | 0.0 | 0.0 | 0.00 | 0.00 | 0.00 | 76 | 1007.0 | |
| 20260506023527 | 8 | 0.0 | 0.0 | 0.00 | 0.00 | 0.00 | 75 | 1008.0 | |
| 20260506022537 | 9 | 0.0 | 0.0 | 0.00 | 0.00 | 0.00 | 75 | 1008.0 | |
| 20260506021527 | 9 | 0.0 | 0.0 | 0.00 | 0.00 | 0.00 | 77 | 1008.0 | |
| 20260506020541 | 9 | 0.0 | 0.0 | 0.00 | 0.00 | 0.00 | 78 | 1008.0 | |
| 20260506014525 | 10 | 0.0 | 0.0 | 0.00 | 0.00 | 0.00 | 76 | 1008.0 | |
| 20260506013530 | 10 | 0.0 | 0.0 | 0.00 | 0.00 | 0.00 | 76 | 1008.0 | |
| 20260506012534 | 10 | 0.0 | 0.0 | 0.00 | 0.00 | 0.00 | 76 | 1008.0 | |
| 20260506011529 | 10 | 0.0 | 0.0 | 0.00 | 0.00 | 0.00 | 76 | 1008.0 | |
| 20260506010612 | 10 | 0.0 | 0.0 | 0.00 | 0.00 | 0.00 | 76 | 1008.0 | |
| 20260506005539 | 10 | 0.0 | 0.0 | 0.00 | 0.00 | 0.00 | 78 | 1008.0 | |
| 20260506004524 | 10 | 0.0 | 0.0 | 0.00 | 0.00 | 0.00 | 78 | 1008.0 | |
| 20260506003538 | 10 | 0.0 | 0.0 | 0.00 | 0.00 | 0.00 | 76 | 1008.0 | |
| 20260506002536 | 10 | 0.0 | 0.0 | 0.00 | 0.00 | 0.00 | 77 | 1008.0 | |
| 20260506001550 | 11 | 0.0 | 0.0 | 0.00 | 0.00 | 0.00 | 76 | 1008.0 | |
| 20260506000527 | 10 | 0.0 | 0.0 | 0.00 | 0.00 | 0.00 | 76 | 1008.0 | |
| 20260505235549 | 10 | 0.0 | 0.0 | 0.00 | 0.00 | 0.00 | 75 | 1008.0 | |
| 20260505234524 | 10 | 0.0 | 0.0 | 0.00 | 0.00 | 0.00 | 75 | 1008.0 | |
| 20260505233553 | 10 | 0.0 | 0.0 | 0.00 | 0.00 | 0.00 | 73 | 1008.0 | |
| 20260505232525 | 10 | 0.0 | 0.0 | 0.00 | 0.00 | 0.00 | 72 | 1008.0 | |
| 20260505231631 | 10 | 0.0 | 0.0 | 0.00 | 0.00 | 0.00 | 72 | 1008.0 | |
| 20260505230544 | 10 | 0.0 | 0.0 | 0.00 | 0.00 | 0.00 | 72 | 1008.0 | |
| 20260505225525 | 10 | 0.0 | 0.0 | 0.00 | 0.00 | 0.00 | 72 | 1006.9 | |
| 20260505224531 | 10 | 0.0 | 0.0 | 0.00 | 0.00 | 0.00 | 73 | 1006.9 | |
| 20260505223523 | 10 | 0.0 | 0.0 | 0.00 | 0.00 | 0.00 | 73 | 1006.9 | |
| 20260505222529 | 10 | 0.0 | 0.0 | 0.00 | 0.00 | 0.00 | 73 | 1006.9 | |
| 20260505221528 | 11 | 0.0 | 0.0 | 0.00 | 0.00 | 0.00 | 73 | 1006.9 | |
| 20260505220540 | 11 | 0.0 | 0.0 | 0.00 | 0.00 | 0.00 | 73 | 1006.9 | |
| 20260505215529 | 11 | 0.0 | 0.0 | 0.00 | 0.00 | 0.00 | 72 | 1006.9 | |
| 20260505214527 | 11 | 0.0 | 0.0 | 0.00 | 0.00 | 0.00 | 71 | 1006.9 | |
| 20260505213527 | 12 | 0.0 | 0.0 | 0.00 | 0.00 | 0.00 | 70 | 1006.9 | |
| 20260505212538 | 12 | 0.0 | 0.0 | 0.00 | 0.00 | 0.00 | 70 | 1006.9 | |
| 20260505211537 | 12 | 0.0 | 0.0 | 0.00 | 0.00 | 0.00 | 70 | 1006.9 | |
| 20260505210527 | 12 | 0.0 | 0.0 | 0.00 | 0.00 | 0.00 | 70 | 1006.9 | |
| 20260505205525 | 12 | 0.0 | 0.0 | 0.00 | 0.00 | 0.00 | 70 | 1006.9 | |
| 20260505204525 | 12 | 0.0 | 0.0 | 0.00 | 0.00 | 0.00 | 69 | 1006.9 | |
| 20260505203528 | 12 | 0.0 | 0.0 | 0.00 | 0.00 | 0.00 | 68 | 1006.9 | |
| 20260505202607 | 12 | 0.0 | 0.0 | 0.00 | 0.00 | 0.00 | 67 | 1006.9 | |
| 20260505201528 | 13 | 0.0 | 0.0 | 0.00 | 0.00 | 0.00 | 65 | 1006.9 | |
| 20260505200523 | 13 | 0.0 | 0.0 | 0.00 | 0.00 | 0.00 | 63 | 1006.9 | |
| 20260505195545 | 13 | 0.0 | 0.0 | 0.00 | 0.00 | 0.00 | 62 | 1006.9 | |
| 20260505194540 | 14 | 0.0 | 0.0 | 0.00 | 0.00 | 0.00 | 59 | 1006.9 | |
| 20260505193528 | 14 | 0.0 | 0.0 | 0.00 | 0.00 | 0.00 | 57 | 1006.9 | |
| 20260505192545 | 15 | 0.0 | 0.0 | 0.00 | 0.00 | 0.00 | 54 | 1006.9 | |
| 20260505191611 | 15 | 0.0 | 0.0 | 0.00 | 0.00 | 0.00 | 52 | 1006.8 | |
| 20260505190536 | 16 | 0.0 | 0.0 | 0.00 | 0.00 | 0.00 | 47 | 1005.8 | |
| 20260505185541 | 16 | 0.0 | 0.0 | 0.00 | 0.00 | 0.00 | 41 | 1004.7 | |
| 20260505184528 | 17 | 0.0 | 0.0 | 0.00 | 0.00 | 0.00 | 36 | 1004.7 | |
| 20260505183534 | 17 | 0.0 | 0.0 | 0.00 | 0.00 | 0.00 | 34 | 1004.7 | |
| 20260505182531 | 18 | 0.0 | 0.0 | 0.00 | 0.00 | 0.00 | 33 | 1004.7 | |
| 20260505181535 | 18 | 0.0 | 0.0 | 0.00 | 0.00 | 0.00 | 33 | 1004.7 | |
| 20260505180535 | 19 | 0.0 | 0.0 | 0.00 | 0.00 | 0.00 | 32 | 1004.7 | |
| 20260505175544 | 20 | 0.0 | 0.0 | 0.00 | 0.00 | 0.00 | 32 | 1004.7 | |
| 20260505174533 | 20 | 0.0 | 0.0 | 0.00 | 0.00 | 0.00 | 31 | 1004.9 | |
| 20260505173525 | 20 | 0.0 | 0.0 | 0.00 | 0.00 | 0.00 | 31 | 1005.8 | |
| 20260505172527 | 21 | 0.0 | 0.0 | 0.00 | 0.00 | 0.00 | 30 | 1005.8 | |
| 20260505171547 | 21 | 0.0 | 0.0 | 0.00 | 0.00 | 0.00 | 30 | 1005.7 | |
| 20260505170525 | 21 | 0.0 | 0.0 | 0.00 | 0.00 | 0.00 | 30 | 1004.7 | |
| 20260505165607 | 22 | 0.0 | 0.0 | 0.00 | 0.00 | 0.00 | 30 | 1005.8 | |
| 20260505164526 | 22 | 0.0 | 0.0 | 0.00 | 0.00 | 0.00 | 29 | 1005.8 | |
| 20260505163524 | 22 | 0.0 | 0.0 | 0.00 | 0.00 | 0.00 | 29 | 1005.8 | |
| 20260505162531 | 22 | 0.0 | 0.0 | 0.00 | 0.00 | 0.00 | 29 | 1005.8 | |
| 20260505161523 | 22 | 0.0 | 0.0 | 0.00 | 0.00 | 0.00 | 28 | 1005.8 | |
| 20260505160531 | 22 | 0.0 | 0.0 | 0.00 | 0.00 | 0.00 | 30 | 1005.8 | |
| 20260505152534 | 23 | 0.0 | 0.0 | 0.00 | 0.00 | 0.00 | 28 | 1005.8 | |
| 20260505151527 | 22 | 0.0 | 0.0 | 0.00 | 0.00 | 0.00 | 28 | 1005.8 | |
| 20260505150525 | 22 | 0.0 | 0.0 | 0.00 | 0.00 | 0.00 | 29 | 1005.8 | |
| 20260505140525 | 23 | 0.0 | 0.0 | 0.00 | 0.00 | 0.00 | 28 | 1006.9 | |
| 20260505124606 | 23 | 0.0 | 0.0 | 0.00 | 0.00 | 0.00 | 28 | 1007.0 | |
| 20260505123524 | 24 | 0.0 | 0.0 | 0.00 | 0.00 | 0.00 | 28 | 1008.0 | |
| 20260505122609 | 24 | 0.0 | 0.0 | 0.00 | 0.00 | 0.00 | 29 | 1008.0 | |
| 20260505121521 | 24 | 0.0 | 0.0 | 0.00 | 0.00 | 0.00 | 29 | 1008.0 | |
| 20260505120527 | 24 | 0.0 | 0.0 | 0.00 | 0.00 | 0.00 | 30 | 1008.0 | |
| 20260505115543 | 24 | 0.0 | 0.0 | 0.00 | 0.00 | 0.00 | 31 | 1008.0 | |
| 20260505114535 | 23 | 0.0 | 0.0 | 0.00 | 0.00 | 0.00 | 31 | 1008.0 | |
| 20260505113529 | 23 | 0.0 | 0.0 | 0.00 | 0.00 | 0.00 | 32 | 1008.0 | |
| 20260505112522 | 23 | 0.0 | 0.0 | 0.00 | 0.00 | 0.00 | 33 | 1008.0 | |
| 20260505111525 | 23 | 0.0 | 0.0 | 0.00 | 0.00 | 0.00 | 33 | 1008.0 | |
| 20260505110602 | 23 | 0.0 | 0.0 | 0.00 | 0.00 | 0.00 | 35 | 1008.0 | |
| 20260505101529 | 22 | 0.0 | 0.0 | 0.00 | 0.00 | 0.00 | 36 | 1008.0 | |
| 20260505100525 | 22 | 0.0 | 0.0 | 0.00 | 0.00 | 0.00 | 37 | 1008.0 | |
| 20260505095530 | 22 | 0.0 | 0.0 | 0.00 | 0.00 | 0.00 | 36 | 1008.0 | |
| 20260505094536 | 22 | 0.0 | 0.0 | 0.00 | 0.00 | 0.00 | 36 | 1008.0 | |
| 20260505093530 | 22 | 0.0 | 0.0 | 0.00 | 0.00 | 0.00 | 36 | 1008.0 |